Location: Goudex
(43.3760°N, 0.9543°E)
Time: 04:54:01
(UTC+00:00)

ATLAS CENTAUR R/B - Pass Details

Date: 20 November 2019
Orbit: 457 x 691 km, 64.7° (Epoch: 30 November)

Event Time Altitude Azimuth Distance (km) Brightness Sun altitude
Exits shadow 05:00:17 42° 240° (WSW) 984 2.2 -20.7°
Maximum altitude 05:01:50 66° 306° (NW) 745 1.7 -20.4°
Drops below altitude 10° 05:06:36 10° 29° (NNE) 2,089 4.5 -19.6°
Sets 05:08:54 0° 33° (NNE) 2,977 5.4 -19.2°
